星链-4417 (STARLINK-4417 )

导读

STARLINK-4417是美国SpaceX星链互联网卫星星座的一员,于2022年7月22日发射升空,旨在为全球提供低延迟、高速宽带互联网服务,尤其覆盖偏远与网络基础设施匮乏地区。它运行在近地轨道,依托规模化星座组网,助力实现全球全域的互联覆盖,是星链星座部署扩张进程中的组成卫星。

Basic Information
目录编号:
53200
目录名称:
STARLINK-4417
国际标识:
2022-084M
轨道中心:
EARTH
卫星名称:
星链-4417
卫星全名:
星链-4417 (STARLINK-4417 )
卫星状态:
在轨 (已飞行1505 天)
发射日期:
2022-07-22 UTC
国别 :
美国 (US)
星等 :
--
Orbit Information
数据来源 国际轨道数据
星历时间: 2026-09-05T02:00:01+0800
3小时前
查看轨道信息
半长轴: 6866.601km
偏心率: 0.0001059
轨道倾角: 97.283°
近地点辐角 57.524°
升交点赤经 303.782°
平近点角 170.006°
近地点: 487.736km
远地点: 489.192km
周期: 94.378分钟
每日圈数: 15.257735
Detailed Information
固有亮度:
5
最大亮度:
2.5
卫星平台:
Starlink v1.5
覆盖范围:
全球
运营商:
太空探索技术公司
运营商所在国:
美国
制造商(研发单位):
太空探索技术公司
制造商所在国:
美国
使用方式:
暂无
Satellite Introduction
星链(Starlink)计划是由太空探索技术公司(SpaceX)提出的一个巨型低轨卫星互联网星座项目,计划在2019年至2024年间在太空搭建由约1.2万颗卫星组成的“星链”网络,其中1584颗将部署在地球上空550千米处的近地轨道,并从2020年开始工作。该卫星仍在工作。
2D Orbit Map
3D Orbit Map
Orbit Altitude Analysis Chart
Orbit Inclination Analysis Chart
Orbit Comprehensive Analysis Chart
View Comprehensive Chart
Conjunction Data List
Event ID Objects TCA Miss Dist (km) Collision Risk Probability Collision Risk Index (CRI) Action
CDM_260903-032005-320006-538021
2026-09-03T
03:20:51+0000
2.605 km
极远距离
1.652692E-6 低风险 0.39